Regional Weather Roundup
Issued by NWS Cleveland, OH

Home | Current Version | Previous Version | Graphics & Text | Print | Product List | Glossary On
Versions: 1 2 3 4 5 6 7 8 9 10 11 12 13 14 15 16 17 18 19 20 21 22 23 24 25 26 27 28 29 30 31 32 33 34 35 36 37 38 39 40 41 42 43 44 45 46 47 48 49 50
000
ASUS41 KCLE 270512
RWRCLE
OHIO REGIONAL WEATHER ROUNDUP
NATIONAL WEATHER SERVICE WILMINGTON, OH
1200 AM EST MON FEB 27 2017

NOTE: "FAIR" INDICATES FEW OR NO CLOUDS BELOW 12,000 FEET WITH NO
SIGNIFICANT WEATHER AND/OR OBSTRUCTIONS TO VISIBILITY.

OHZ001>008-015>018-024>027-034-035-043-044-270600-
   NORTHWEST OHIO

CITY           SKY/WX    TMP DP  RH WIND       PRES   REMARKS
DEFIANCE       FAIR      33  21  61 SW9       30.12R WCI  25
FINDLAY        FAIR      34  21  59 SW9       30.13S WCI  27
TOLEDO EXPRESS FAIR      36  21  54 SW12G20   30.11R
TOLEDO EXEC    FAIR      35  23  61 SW14      30.12S WCI  26
LIMA           CLOUDY    37  22  54 S8        30.14R
$$

OHZ009>014-019>023-028>033-038-089-270600-
   NORTHEAST OHIO

CITY           SKY/WX    TMP DP  RH WIND       PRES   REMARKS
CLE-HOPKINS    FAIR      37  18  46 S12       30.17R
CLE-LAKEFRONT  FAIR      39  18  42 S17G28    30.14R
CUY CO. ARPT   NOT AVBL
LORAIN-ELYRIA  FAIR      35  18  49 S10       30.15S WCI  27
ASHTABULA      FAIR      34  19  54 S13       30.15S WCI  25
AKRON-CANTON   FAIR      33  16  49 SW10      30.16S WCI  25
WOOSTER        FAIR      34  18  52 SW8       30.17R WCI  27
MANSFIELD      FAIR      34  20  56 S10       30.15R WCI  26
YOUNGSTOWN     FAIR      32  16  51 S6        30.17R WCI  26
$$

OHZ042-051>053-060>062-070>072-077>081-270600-
  SOUTHWEST OHIO

CITY           SKY/WX    TMP DP  RH WIND       PRES   REMARKS
CINC-COVINGTON CLOUDY    39  21  48 S6        30.17R
CINC-LUNKEN    CLOUDY    38  27  64 CALM      30.20R
HAMILTON       CLOUDY    39  25  57 CALM      30.19S
DAYTON         MOCLDY    39  18  42 S8        30.17R
WRIGHT-PAT AFB CLOUDY    37  21  52 SE3       30.17R
DAYTON GENERAL CLOUDY    39  21  48 S6        30.16S
WILMINGTON     CLOUDY    36  23  59 S6        30.17S
$$

OHZ036-037-039>041-045>050-054>059-063>069-073>076-082>088-270600-
  CENTRAL AND SOUTHEAST OHIO

CITY           SKY/WX    TMP DP  RH WIND       PRES   REMARKS
COLUMBUS       MOCLDY    40  19  43 S5        30.18R
OSU AIRPORT    MOCLDY    37  21  52 S6        30.18R
BOLTON FIELD   CLOUDY    36  24  63 S7        30.19R
RICKENBACK AFB CLOUDY    38  22  52 S6        30.19R
NEWARK         FAIR      30  22  72 SW3       30.18S
MARION         FAIR      33  22  63 S12       30.16S WCI  24
LANCASTER      CLOUDY    39  21  48 SE5       30.20R
ZANESVILLE     FAIR      32  20  61 CALM      30.20R
NEW PHILLY     FAIR      29  22  75 SE3       30.20S
$$




USA.gov is the U.S. government's official web portal to all federal, state and local government web resources and services.